Hourly Weather Studnice

Today, 24 September, Thursday

Time Temperature Precipitation Wind Pressure Humidity
00:00 +18°C° 0.4 mm 2 mps 740 mmHg 85%
01:00 +17°C° 0.4 mm 2 mps 740 mmHg 85%
02:00 +17°C° 0 mm 2 mps 740 mmHg 83%
03:00 +16°C° 0 mm 2 mps 740 mmHg 82%
04:00 +16°C° 0 mm 2 mps 740 mmHg 80%
05:00 +16°C° 0 mm 2 mps 740 mmHg 79%
06:00 +16°C° 0 mm 3 mps 740 mmHg 77%
07:00 +16°C° 0 mm 3 mps 740 mmHg 76%
08:00 +18°C° 0 mm 3 mps 740 mmHg 69%
09:00 +20°C° 0 mm 3 mps 741 mmHg 62%
10:00 +22°C° 0 mm 4 mps 741 mmHg 55%
11:00 +23°C° 0.1 mm 4 mps 741 mmHg 53%
12:00 +25°C° 0.1 mm 4 mps 741 mmHg 52%
13:00 +25°C° 0.1 mm 4 mps 741 mmHg 51%
14:00 +25°C° 0.1 mm 4 mps 741 mmHg 53%
15:00 +23°C° 0.1 mm 4 mps 741 mmHg 55%
16:00 +24°C° 0.1 mm 3 mps 741 mmHg 57%
17:00 +21°C° 0 mm 3 mps 741 mmHg 63%
18:00 +20°C° 0 mm 2 mps 741 mmHg 70%
19:00 +18°C° 0 mm 2 mps 741 mmHg 76%
20:00 +18°C° 0 mm 2 mps 741 mmHg 78%
21:00 +17°C° 0 mm 2 mps 740 mmHg 80%
22:00 +17°C° 0 mm 2 mps 740 mmHg 82%
23:00 +17°C° 0 mm 2 mps 740 mmHg 82%

Tomorrow, 25 September, Friday

Time Temperature Precipitation Wind Pressure Humidity
00:00 +16°C° 0 mm 2 mps 739 mmHg 82%
01:00 +16°C° 0 mm 2 mps 739 mmHg 83%
02:00 +16°C° 0 mm 2 mps 738 mmHg 83%
03:00 +16°C° 0 mm 2 mps 737 mmHg 84%
04:00 +16°C° 0 mm 2 mps 736 mmHg 84%
05:00 +16°C° 0.2 mm 2 mps 735 mmHg 84%
06:00 +16°C° 0.2 mm 3 mps 735 mmHg 84%
07:00 +16°C° 0.2 mm 3 mps 734 mmHg 84%
08:00 +16°C° 1 mm 3 mps 734 mmHg 86%
09:00 +15°C° 1 mm 4 mps 734 mmHg 88%
10:00 +14°C° 1 mm 4 mps 733 mmHg 91%
11:00 +14°C° 0.4 mm 4 mps 734 mmHg 90%
12:00 +14°C° 0.4 mm 5 mps 734 mmHg 89%
13:00 +14°C° 0.4 mm 5 mps 734 mmHg 88%
14:00 +13°C° 0.9 mm 5 mps 734 mmHg 87%
15:00 +13°C° 0.9 mm 4 mps 735 mmHg 86%
16:00 +13°C° 0.9 mm 4 mps 735 mmHg 86%
17:00 +12°C° 0.1 mm 4 mps 735 mmHg 84%
18:00 +12°C° 0.1 mm 4 mps 736 mmHg 82%
19:00 +11°C° 0.1 mm 4 mps 736 mmHg 80%
20:00 +11°C° 0 mm 3 mps 736 mmHg 79%
21:00 +11°C° 0 mm 3 mps 737 mmHg 77%
22:00 +10°C° 0 mm 2 mps 737 mmHg 76%
23:00 +10°C° 0 mm 2 mps 737 mmHg 77%

Day after tomorrow, 26 September, Saturday

Time Temperature Precipitation Wind Pressure Humidity
00:00 +10°C° 0 mm 2 mps 737 mmHg 78%
01:00 +11°C° 0 mm 1 mps 737 mmHg 78%
02:00 +11°C° 0.1 mm 1 mps 737 mmHg 79%
03:00 +11°C° 0.1 mm 1 mps 736 mmHg 80%
04:00 +10°C° 0.1 mm 2 mps 736 mmHg 81%
05:00 +9°C° 0.7 mm 2 mps 736 mmHg 84%
06:00 +9°C° 0.7 mm 2 mps 736 mmHg 86%
07:00 +8°C° 0.7 mm 3 mps 736 mmHg 89%
08:00 +8°C° 2.1 mm 3 mps 736 mmHg 90%
09:00 +7°C° 2.1 mm 4 mps 736 mmHg 91%
10:00 +7°C° 2.1 mm 4 mps 736 mmHg 93%
11:00 +7°C° 2 mm 4 mps 736 mmHg 92%
12:00 +7°C° 2 mm 4 mps 735 mmHg 92%
13:00 +8°C° 2 mm 4 mps 735 mmHg 91%
14:00 +8°C° 0.8 mm 4 mps 735 mmHg 92%
15:00 +9°C° 0.8 mm 3 mps 735 mmHg 92%
16:00 +9°C° 0.8 mm 3 mps 735 mmHg 92%
17:00 +9°C° 0.2 mm 3 mps 735 mmHg 93%
18:00 +9°C° 0.2 mm 3 mps 735 mmHg 93%
19:00 +9°C° 0.2 mm 3 mps 735 mmHg 94%
20:00 +9°C° 0.1 mm 3 mps 735 mmHg 94%
21:00 +9°C° 0.1 mm 3 mps 735 mmHg 95%
22:00 +9°C° 0.1 mm 3 mps 735 mmHg 95%
23:00 +9°C° 0.1 mm 3 mps 735 mmHg 95%

27 September, Sunday

Time Temperature Precipitation Wind Pressure Humidity
00:00 +9°C° 0.1 mm 3 mps 735 mmHg 95%
01:00 +9°C° 0.1 mm 3 mps 735 mmHg 95%
02:00 +9°C° 0.6 mm 3 mps 734 mmHg 95%
03:00 +8°C° 0.6 mm 4 mps 734 mmHg 95%
04:00 +8°C° 0.6 mm 4 mps 734 mmHg 94%
05:00 +8°C° 1.2 mm 4 mps 734 mmHg 94%
06:00 +8°C° 1.2 mm 5 mps 734 mmHg 93%
07:00 +8°C° 1.2 mm 5 mps 734 mmHg 93%
08:00 +8°C° 0.1 mm 5 mps 734 mmHg 92%
09:00 +8°C° 0.1 mm 5 mps 734 mmHg 92%
10:00 +8°C° 0.1 mm 5 mps 734 mmHg 91%
11:00 +8°C° 0.7 mm 5 mps 735 mmHg 91%
12:00 +8°C° 0.7 mm 6 mps 735 mmHg 91%
13:00 +8°C° 0.7 mm 6 mps 735 mmHg 91%
14:00 +8°C° 0.8 mm 6 mps 735 mmHg 91%
15:00 +8°C° 0.8 mm 6 mps 735 mmHg 92%
16:00 +7°C° 0.8 mm 6 mps 736 mmHg 92%
17:00 +7°C° 0.2 mm 5 mps 736 mmHg 91%
18:00 +7°C° 0.2 mm 5 mps 736 mmHg 91%
19:00 +7°C° 0.2 mm 5 mps 737 mmHg 91%
20:00 +8°C° 0.1 mm 5 mps 737 mmHg 91%
21:00 +8°C° 0.1 mm 5 mps 737 mmHg 91%
22:00 +8°C° 0.1 mm 4 mps 738 mmHg 91%
23:00 +8°C° 0.1 mm 4 mps 738 mmHg 91%

28 September, Monday

Time Temperature Precipitation Wind Pressure Humidity
00:00 +7°C° 0.1 mm 4 mps 738 mmHg 90%
01:00 +7°C° 0.1 mm 4 mps 738 mmHg 90%
02:00 +7°C° 0.1 mm 4 mps 738 mmHg 91%
03:00 +7°C° 0.1 mm 4 mps 738 mmHg 91%
04:00 +7°C° 0.1 mm 4 mps 738 mmHg 91%
05:00 +7°C° 0.1 mm 4 mps 738 mmHg 91%
06:00 +7°C° 0.1 mm 4 mps 738 mmHg 91%
07:00 +7°C° 0.1 mm 4 mps 738 mmHg 91%
08:00 +9°C° 0.1 mm 3 mps 738 mmHg 90%
09:00 +9°C° 0.1 mm 3 mps 738 mmHg 90%
10:00 +9°C° 0.1 mm 3 mps 738 mmHg 89%
11:00 +9°C° 0.1 mm 3 mps 738 mmHg 88%
12:00 +10°C° 0.1 mm 3 mps 738 mmHg 87%
13:00 +10°C° 0.1 mm 3 mps 738 mmHg 87%
14:00 +10°C° 0.9 mm 3 mps 738 mmHg 89%
15:00 +10°C° 0.9 mm 3 mps 738 mmHg 91%
16:00 +9°C° 0.9 mm 3 mps 738 mmHg 93%
17:00 +9°C° 1.1 mm 3 mps 738 mmHg 94%
18:00 +9°C° 1.1 mm 3 mps 738 mmHg 94%
19:00 +9°C° 1.1 mm 3 mps 738 mmHg 95%
20:00 +9°C° 1 mm 3 mps 738 mmHg 95%
21:00 +9°C° 1 mm 3 mps 738 mmHg 95%
22:00 +9°C° 1 mm 3 mps 738 mmHg 95%
23:00 +9°C° 0.3 mm 3 mps 738 mmHg 95%

29 September, Tuesday

Time Temperature Precipitation Wind Pressure Humidity
00:00 +9°C° 0.3 mm 3 mps 738 mmHg 95%
01:00 +9°C° 0.3 mm 3 mps 738 mmHg 95%
02:00 +9°C° 0 mm 3 mps 738 mmHg 95%
03:00 +9°C° 0 mm 2 mps 738 mmHg 94%
04:00 +9°C° 0 mm 2 mps 738 mmHg 94%
05:00 +9°C° 0 mm 2 mps 738 mmHg 94%
06:00 +9°C° 0 mm 2 mps 739 mmHg 94%
07:00 +9°C° 0 mm 2 mps 739 mmHg 94%
08:00 +10°C° 0 mm 2 mps 739 mmHg 89%
09:00 +13°C° 0 mm 1 mps 740 mmHg 84%
10:00 +14°C° 0 mm 1 mps 740 mmHg 79%
11:00 +14°C° 0 mm 1 mps 741 mmHg 77%
12:00 +15°C° 0 mm 1 mps 741 mmHg 76%
13:00 +15°C° 0 mm 1 mps 741 mmHg 74%
14:00 +15°C° 0 mm 1 mps 742 mmHg 74%
15:00 +15°C° 0 mm 1 mps 742 mmHg 74%
16:00 +15°C° 0 mm 1 mps 742 mmHg 74%
17:00 +14°C° 0 mm 1 mps 742 mmHg 78%
18:00 +13°C° 0 mm 1 mps 743 mmHg 82%
19:00 +12°C° 0 mm 1 mps 743 mmHg 86%
20:00 +12°C° 0 mm 1 mps 743 mmHg 88%
21:00 +11°C° 0 mm 1 mps 743 mmHg 90%
22:00 +11°C° 0 mm 1 mps 743 mmHg 92%
23:00 +11°C° 0 mm 1 mps 743 mmHg 92%
Show more